Tacoma Narrows, WA
on Tuesday, January 15, 2013

Tuesday
Previous Day Next Day
Daily Summary
 ActualAverageRecord
Temperature
Mean Temperature °F °F  
Max Temperature 42°F 44°F 53°F (2011)
Min Temperature 32°F 37°F 23°F (2007)
Degree Days
Heating Degree Days 28    
Moisture
Dew Point 30°F   
Average Humidity 81    
Maximum Humidity 89    
Minimum Humidity 62    
Precipitation
Precipitation 0.00 in in in ()
Wind
Wind Speed 2 mph   
Max Wind Speed 10 mph   
Max Gust Speed mph   
Visibility 10 miles   
Events     
Averages and records for this station are not official NWS values.
Key: T is trace of precipitation, MM is missing value
Source: NWS Daily Summary
Seasonal Weather Averages
Time(PST)TemperatureDew PointHumidity Pressure Visibility Wind DirectionWind SpeedGust SpeedPrecipitationEvents Conditions
12:53 AM 33.1°F 30.0°F 89% 30.59 in 9.0 miles Calm Calm - N/A   Mostly Cloudy
1:06 AM 33.8°F 30.2°F 87% 30.58 in 8.0 miles Calm Calm - N/A   Scattered Clouds
1:14 AM 32.0°F 28.4°F 87% 30.58 in 8.0 miles NNW 3.5 mph - N/A   Mostly Cloudy
1:53 AM 33.1°F 30.0°F 89% 30.61 in 8.0 miles Calm Calm - N/A   Overcast
2:34 AM 33.8°F 30.2°F 87% 30.61 in 8.0 miles Calm Calm - N/A   Overcast
2:53 AM 34.0°F 30.0°F 85% 30.63 in 9.0 miles NNW 3.5 mph - N/A   Overcast
3:53 AM 34.0°F 30.9°F 89% 30.63 in 9.0 miles Calm Calm - N/A   Overcast
4:53 AM 34.0°F 30.9°F 89% 30.63 in 10.0 miles Calm Calm - N/A   Overcast
5:53 AM 34.0°F 30.9°F 89% 30.64 in 10.0 miles Calm Calm - N/A   Overcast
6:32 AM 33.8°F 30.2°F 87% 30.63 in 10.0 miles Calm Calm - N/A   Overcast
6:53 AM 34.0°F 30.9°F 89% 30.66 in 10.0 miles Calm Calm - N/A   Overcast
7:40 AM 35.6°F 30.2°F 81% 30.66 in 10.0 miles Calm Calm - N/A   Overcast
7:53 AM 35.1°F 30.0°F 82% 30.68 in 10.0 miles Calm Calm - N/A   Overcast
8:53 AM 34.0°F 30.9°F 89% 30.70 in 10.0 miles Calm Calm - N/A   Overcast
9:32 AM 37.4°F 30.2°F 75% 30.68 in 10.0 miles Calm Calm - N/A   Overcast
9:53 AM 37.9°F 34.0°F 86% 30.70 in 10.0 miles Calm Calm - N/A   Overcast
9:55 AM 37.4°F 33.8°F 87% 30.68 in 10.0 miles Calm Calm - N/A   Overcast
10:53 AM 39.0°F 33.1°F 79% 30.71 in 10.0 miles Calm Calm - N/A   Mostly Cloudy
11:53 AM 41.0°F 32.0°F 70% 30.70 in 10.0 miles Variable 4.6 mph - N/A   Scattered Clouds
12:53 PM 41.0°F 30.9°F 67% 30.69 in 10.0 miles Variable 4.6 mph - N/A   Mostly Cloudy
1:53 PM 42.1°F 30.0°F 62% 30.70 in 10.0 miles North 8.1 mph - N/A   Mostly Cloudy
2:53 PM 42.1°F 30.0°F 62% 30.70 in 10.0 miles North 10.4 mph - N/A   Scattered Clouds
3:53 PM 41.0°F 28.9°F 62% 30.70 in 10.0 miles North 6.9 mph - N/A   Scattered Clouds
4:53 PM 37.9°F 28.9°F 70% 30.69 in 10.0 miles NNW 6.9 mph - N/A   Clear
5:53 PM 35.1°F 28.0°F 76% 30.69 in 10.0 miles North 6.9 mph - N/A   Clear
6:53 PM 37.0°F 30.0°F 76% 30.69 in 10.0 miles North 6.9 mph - N/A   Clear
7:53 PM 35.1°F 30.0°F 82% 30.69 in 10.0 miles North 6.9 mph - N/A   Clear
8:53 PM 33.1°F 28.0°F 82% 30.69 in 10.0 miles North 5.8 mph - N/A   Clear
9:53 PM 37.4°F 30.2°F 75% 30.67 in 10.0 miles North 5.8 mph - N/A   Clear
10:53 PM 32.0°F 28.0°F 85% 30.68 in 10.0 miles Calm Calm - N/A   Clear
11:53 PM 32.0°F 28.0°F 85% 30.68 in 10.0 miles Calm Calm - N/A   Clear
Moon Phase
Jan. 15 Jan. 18 Jan. 26 Feb. 03 Feb. 10
Sunrise:07:52 AM (PST) Moon Rise:09:39 AM (PST)1/15
Sunset:04:47 PM (PST) Moon Set:10:07 PM (PST)1/15

Copyright © 2014 The Weather Underground, Inc.